Time,TemperatureF,DewpointF,PressureIn,WindDirection,WindDirectionDegrees,WindSpeedMPH,WindSpeedGustMPH,Humidity,HourlyPrecipIn,Conditions,Clouds,dailyrainin,SoftwareType,DateUTC
2013-03-26 00:02:00,33.3,26.0,29.57,North,356,0.0,4.0,74,0.00,,,0.00,weatherlink.com 1.10,2013-03-26 04:02:00,
2013-03-26 00:17:00,33.5,26.0,29.57,WNW,290,0.0,3.0,75,0.00,,,0.00,weatherlink.com 1.10,2013-03-26 04:17:00,
2013-03-26 00:32:00,33.5,26.0,29.58,West,277,1.0,3.0,75,0.00,,,0.00,weatherlink.com 1.10,2013-03-26 04:32:00,
2013-03-26 00:47:00,33.6,26.0,29.58,NE,47,0.0,1.0,75,0.00,,,0.00,weatherlink.com 1.10,2013-03-26 04:47:00,
2013-03-26 01:02:00,33.7,27.0,29.58,WNW,287,0.0,3.0,76,0.00,,,0.00,weatherlink.com 1.10,2013-03-26 05:02:00,
2013-03-26 01:17:00,33.9,27.0,29.58,NW,322,0.0,6.0,76,0.00,,,0.00,weatherlink.com 1.10,2013-03-26 05:17:00,
2013-03-26 01:32:00,34.2,27.0,29.58,NNE,15,4.0,6.0,75,0.00,,,0.00,weatherlink.com 1.10,2013-03-26 05:32:00,
2013-03-26 01:47:00,34.1,27.0,29.58,West,270,1.0,7.0,74,0.00,,,0.00,weatherlink.com 1.10,2013-03-26 05:47:00,
2013-03-26 02:02:00,33.9,26.0,29.58,North,358,8.0,12.0,73,0.00,,,0.00,weatherlink.com 1.10,2013-03-26 06:02:00,
2013-03-26 02:17:00,33.7,26.0,29.58,NNE,23,1.0,5.0,74,0.00,,,0.00,weatherlink.com 1.10,2013-03-26 06:17:00,
2013-03-26 02:32:00,33.5,26.0,29.58,NNE,27,0.0,3.0,74,0.00,,,0.00,weatherlink.com 1.10,2013-03-26 06:32:00,
2013-03-26 02:47:00,33.1,26.0,29.58,North,356,0.0,3.0,75,0.00,,,0.00,weatherlink.com 1.10,2013-03-26 06:47:00,
2013-03-26 03:02:00,33.0,26.0,29.58,WNW,297,2.0,5.0,76,0.00,,,0.00,weatherlink.com 1.10,2013-03-26 07:02:00,
2013-03-26 03:17:00,33.1,26.0,29.58,North,351,0.0,10.0,76,0.00,,,0.00,weatherlink.com 1.10,2013-03-26 07:17:00,
2013-03-26 03:32:00,32.9,26.0,29.59,NNW,333,0.0,6.0,76,0.00,,,0.00,weatherlink.com 1.10,2013-03-26 07:32:00,
2013-03-26 03:47:00,32.6,26.0,29.59,WSW,245,1.0,6.0,77,0.00,,,0.00,weatherlink.com 1.10,2013-03-26 07:47:00,
2013-03-26 04:02:00,32.3,26.0,29.59,NNW,337,1.0,4.0,78,0.00,,,0.00,weatherlink.com 1.10,2013-03-26 08:02:00,
2013-03-26 04:17:00,32.1,26.0,29.59,West,262,1.0,4.0,79,0.00,,,0.00,weatherlink.com 1.10,2013-03-26 08:17:00,
2013-03-26 04:33:00,31.9,26.0,29.59,West,270,0.0,4.0,80,0.00,,,0.00,weatherlink.com 1.10,2013-03-26 08:33:00,
2013-03-26 04:48:00,31.8,26.0,29.60,WNW,294,2.0,5.0,80,0.00,,,0.00,weatherlink.com 1.10,2013-03-26 08:48:00,
2013-03-26 05:03:00,31.8,26.0,29.60,West,269,0.0,3.0,80,0.00,,,0.00,weatherlink.com 1.10,2013-03-26 09:03:00,
2013-03-26 05:18:00,31.9,26.0,29.60,WNW,302,2.0,4.0,80,0.00,,,0.00,weatherlink.com 1.10,2013-03-26 09:18:00,
2013-03-26 05:33:00,32.1,26.0,29.60,West,269,0.0,5.0,79,0.00,,,0.00,weatherlink.com 1.10,2013-03-26 09:33:00,
2013-03-26 05:48:00,32.0,26.0,29.61,WNW,288,0.0,3.0,79,0.00,,,0.00,weatherlink.com 1.10,2013-03-26 09:48:00,
2013-03-26 06:03:00,32.1,26.0,29.61,WSW,252,1.0,1.0,78,0.00,,,0.00,weatherlink.com 1.10,2013-03-26 10:03:00,
2013-03-26 06:18:00,32.0,26.0,29.61,West,259,0.0,2.0,79,0.00,,,0.00,weatherlink.com 1.10,2013-03-26 10:18:00,
2013-03-26 06:35:00,31.9,27.0,29.62,WNW,300,1.0,2.0,81,0.00,,,0.00,weatherlink.com 1.10,2013-03-26 10:35:00,
2013-03-26 06:48:00,31.9,27.0,29.62,NNE,29,0.0,3.0,82,0.00,,,0.00,weatherlink.com 1.10,2013-03-26 10:48:00,
2013-03-26 07:03:00,32.0,27.0,29.63,WNW,287,2.0,3.0,82,0.00,,,0.00,weatherlink.com 1.10,2013-03-26 11:03:00,
2013-03-26 07:18:00,32.1,27.0,29.63,West,273,0.0,2.0,81,0.00,,,0.00,weatherlink.com 1.10,2013-03-26 11:18:00,
2013-03-26 07:33:00,32.2,27.0,29.64,WSW,253,0.0,3.0,81,0.00,,,0.00,weatherlink.com 1.10,2013-03-26 11:33:00,
2013-03-26 07:48:00,32.3,27.0,29.65,WNW,287,2.0,4.0,81,0.00,,,0.00,weatherlink.com 1.10,2013-03-26 11:48:00,
2013-03-26 08:03:00,32.4,27.0,29.65,NW,308,1.0,4.0,80,0.00,,,0.00,weatherlink.com 1.10,2013-03-26 12:03:00,
2013-03-26 08:18:00,32.1,28.0,29.66,WNW,287,1.0,8.0,84,0.00,,,0.00,weatherlink.com 1.10,2013-03-26 12:18:00,
2013-03-26 08:33:00,31.5,28.0,29.66,NW,306,2.0,5.0,88,0.00,,,0.00,weatherlink.com 1.10,2013-03-26 12:33:00,
2013-03-26 08:48:00,31.8,29.0,29.66,WSW,253,0.0,5.0,88,0.00,,,0.00,weatherlink.com 1.10,2013-03-26 12:48:00,
2013-03-26 09:03:00,32.5,29.0,29.67,WNW,283,4.0,5.0,86,0.00,,,0.00,weatherlink.com 1.10,2013-03-26 13:03:00,
2013-03-26 09:18:00,33.2,29.0,29.67,SW,236,0.0,1.0,85,0.00,,,0.00,weatherlink.com 1.10,2013-03-26 13:18:00,
2013-03-26 09:33:00,34.4,29.0,29.67,NW,309,1.0,6.0,81,0.00,,,0.00,weatherlink.com 1.10,2013-03-26 13:33:00,
2013-03-26 09:48:00,35.9,29.0,29.67,WSW,240,2.0,6.0,77,0.00,,,0.00,weatherlink.com 1.10,2013-03-26 13:48:00,
2013-03-26 10:03:00,37.5,29.0,29.67,WNW,288,4.0,5.0,72,0.00,,,0.00,weatherlink.com 1.10,2013-03-26 14:03:00,
2013-03-26 10:18:00,37.1,28.0,29.67,West,281,3.0,8.0,69,0.00,,,0.00,weatherlink.com 1.10,2013-03-26 14:18:00,
2013-03-26 10:33:00,38.4,28.0,29.67,NE,47,3.0,7.0,67,0.00,,,0.00,weatherlink.com 1.10,2013-03-26 14:33:00,
2013-03-26 10:48:00,39.5,27.0,29.67,WNW,288,3.0,6.0,61,0.00,,,0.00,weatherlink.com 1.10,2013-03-26 14:48:00,
2013-03-26 11:03:00,38.5,26.0,29.68,WNW,293,0.0,7.0,60,0.00,,,0.00,weatherlink.com 1.10,2013-03-26 15:03:00,
2013-03-26 11:18:00,38.8,27.0,29.68,WNW,286,2.0,7.0,62,0.00,,,0.00,weatherlink.com 1.10,2013-03-26 15:18:00,
2013-03-26 11:34:00,39.3,25.0,29.68,NW,308,4.0,6.0,57,0.00,,,0.00,weatherlink.com 1.10,2013-03-26 15:34:00,
2013-03-26 11:49:00,40.3,25.0,29.68,NW,326,2.0,11.0,54,0.00,,,0.00,weatherlink.com 1.10,2013-03-26 15:49:00,
2013-03-26 12:04:00,39.9,24.0,29.68,WNW,288,1.0,9.0,53,0.00,,,0.00,weatherlink.com 1.10,2013-03-26 16:04:00,
2013-03-26 12:19:00,41.7,23.0,29.68,WNW,294,5.0,13.0,48,0.00,,,0.00,weatherlink.com 1.10,2013-03-26 16:19:00,
2013-03-26 12:34:00,43.7,25.0,29.68,NW,309,4.0,15.0,48,0.00,,,0.00,weatherlink.com 1.10,2013-03-26 16:34:00,
2013-03-26 12:49:00,42.6,22.0,29.68,West,274,3.0,9.0,45,0.00,,,0.00,weatherlink.com 1.10,2013-03-26 16:49:00,
2013-03-26 13:04:00,42.7,22.0,29.68,WNW,298,2.0,12.0,44,0.00,,,0.00,weatherlink.com 1.10,2013-03-26 17:04:00,
2013-03-26 13:19:00,43.0,22.0,29.68,NNW,334,4.0,11.0,43,0.00,,,0.00,weatherlink.com 1.10,2013-03-26 17:19:00,
2013-03-26 13:34:00,42.2,21.0,29.68,WNW,282,2.0,9.0,43,0.00,,,0.00,weatherlink.com 1.10,2013-03-26 17:34:00,
2013-03-26 13:49:00,43.8,22.0,29.68,WNW,302,3.0,8.0,42,0.00,,,0.00,weatherlink.com 1.10,2013-03-26 17:49:00,
2013-03-26 14:04:00,44.2,22.0,29.68,West,280,1.0,13.0,42,0.00,,,0.00,weatherlink.com 1.10,2013-03-26 18:04:00,
2013-03-26 14:19:00,44.7,20.0,29.67,SSE,155,1.0,8.0,38,0.00,,,0.00,weatherlink.com 1.10,2013-03-26 18:19:00,
2013-03-26 14:34:00,43.9,21.0,29.68,WSW,253,3.0,13.0,40,0.00,,,0.00,weatherlink.com 1.10,2013-03-26 18:34:00,
2013-03-26 14:49:00,44.5,20.0,29.68,West,266,6.0,10.0,37,0.00,,,0.00,weatherlink.com 1.10,2013-03-26 18:49:00,
2013-03-26 15:05:00,44.6,21.0,29.68,WNW,302,2.0,11.0,40,0.00,,,0.00,weatherlink.com 1.10,2013-03-26 19:05:00,
2013-03-26 15:19:00,44.0,20.0,29.68,WNW,302,5.0,15.0,38,0.00,,,0.00,weatherlink.com 1.10,2013-03-26 19:19:00,
2013-03-26 15:34:00,45.1,19.0,29.67,WSW,243,0.0,12.0,36,0.00,,,0.00,weatherlink.com 1.10,2013-03-26 19:34:00,
2013-03-26 15:49:00,45.7,20.0,29.68,West,280,3.0,9.0,36,0.00,,,0.00,weatherlink.com 1.10,2013-03-26 19:49:00,
2013-03-26 16:04:00,45.0,21.0,29.68,West,281,5.0,12.0,38,0.00,,,0.00,weatherlink.com 1.10,2013-03-26 20:04:00,
2013-03-26 16:19:00,45.8,19.0,29.68,WNW,284,1.0,6.0,35,0.00,,,0.00,weatherlink.com 1.10,2013-03-26 20:19:00,
2013-03-26 16:34:00,45.5,20.0,29.68,WNW,293,5.0,13.0,36,0.00,,,0.00,weatherlink.com 1.10,2013-03-26 20:34:00,
2013-03-26 16:49:00,45.3,19.0,29.68,West,276,3.0,11.0,35,0.00,,,0.00,weatherlink.com 1.10,2013-03-26 20:49:00,
2013-03-26 17:04:00,43.9,18.0,29.69,West,280,6.0,10.0,36,0.00,,,0.00,weatherlink.com 1.10,2013-03-26 21:04:00,
2013-03-26 17:19:00,44.2,19.0,29.69,WSW,243,12.0,16.0,37,0.00,,,0.00,weatherlink.com 1.10,2013-03-26 21:19:00,
2013-03-26 17:34:00,43.2,20.0,29.70,SW,228,5.0,10.0,39,0.00,,,0.00,weatherlink.com 1.10,2013-03-26 21:34:00,
2013-03-26 17:49:00,43.2,20.0,29.71,WSW,250,5.0,13.0,40,0.00,,,0.00,weatherlink.com 1.10,2013-03-26 21:49:00,
2013-03-26 18:04:00,42.8,20.0,29.71,SW,231,5.0,13.0,40,0.00,,,0.00,weatherlink.com 1.10,2013-03-26 22:04:00,
2013-03-26 18:19:00,41.7,21.0,29.71,WNW,287,2.0,11.0,43,0.00,,,0.00,weatherlink.com 1.10,2013-03-26 22:19:00,
2013-03-26 18:34:00,41.1,21.0,29.72,SW,226,4.0,11.0,44,0.00,,,0.00,weatherlink.com 1.10,2013-03-26 22:34:00,
2013-03-26 18:49:00,40.2,21.0,29.73,WSW,253,9.0,13.0,46,0.00,,,0.00,weatherlink.com 1.10,2013-03-26 22:49:00,
2013-03-26 19:04:00,39.2,21.0,29.73,West,269,5.0,5.0,48,0.00,,,0.00,weatherlink.com 1.10,2013-03-26 23:04:00,
2013-03-26 19:19:00,38.9,21.0,29.74,West,276,2.0,6.0,49,0.00,,,0.00,weatherlink.com 1.10,2013-03-26 23:19:00,
2013-03-26 19:34:00,38.4,21.0,29.74,West,277,3.0,10.0,50,0.00,,,0.00,weatherlink.com 1.10,2013-03-26 23:34:00,
2013-03-26 19:49:00,38.3,21.0,29.75,West,276,3.0,10.0,51,0.00,,,0.00,weatherlink.com 1.10,2013-03-26 23:49:00,
2013-03-26 20:04:00,37.6,22.0,29.75,WNW,287,3.0,8.0,53,0.00,,,0.00,weatherlink.com 1.10,2013-03-27 00:04:00,
2013-03-26 20:19:00,37.3,22.0,29.76,WSW,256,3.0,9.0,54,0.00,,,0.00,weatherlink.com 1.10,2013-03-27 00:19:00,
2013-03-26 20:34:00,36.4,21.0,29.76,West,278,2.0,5.0,55,0.00,,,0.00,weatherlink.com 1.10,2013-03-27 00:34:00,
2013-03-26 20:49:00,36.4,22.0,29.76,WNW,285,3.0,8.0,57,0.00,,,0.00,weatherlink.com 1.10,2013-03-27 00:49:00,
2013-03-26 21:04:00,36.2,21.0,29.77,NW,307,6.0,6.0,55,0.00,,,0.00,weatherlink.com 1.10,2013-03-27 01:04:00,
2013-03-26 21:19:00,36.1,21.0,29.77,WNW,287,4.0,7.0,54,0.00,,,0.00,weatherlink.com 1.10,2013-03-27 01:19:00,
2013-03-26 21:34:00,35.5,20.0,29.77,WNW,287,3.0,4.0,54,0.00,,,0.00,weatherlink.com 1.10,2013-03-27 01:34:00,
2013-03-26 21:49:00,35.0,20.0,29.78,WNW,288,3.0,7.0,54,0.00,,,0.00,weatherlink.com 1.10,2013-03-27 01:49:00,
2013-03-26 22:04:00,34.9,20.0,29.78,West,280,1.0,5.0,54,0.00,,,0.00,weatherlink.com 1.10,2013-03-27 02:04:00,
2013-03-26 22:19:00,34.6,20.0,29.78,West,269,1.0,4.0,55,0.00,,,0.00,weatherlink.com 1.10,2013-03-27 02:19:00,
2013-03-26 22:35:00,34.2,19.0,29.78,West,262,4.0,5.0,55,0.00,,,0.00,weatherlink.com 1.10,2013-03-27 02:35:00,
2013-03-26 22:50:00,34.3,20.0,29.78,WSW,247,4.0,10.0,55,0.00,,,0.00,weatherlink.com 1.10,2013-03-27 02:50:00,
2013-03-26 23:05:00,34.0,20.0,29.78,WNW,284,2.0,5.0,57,0.00,,,0.00,weatherlink.com 1.10,2013-03-27 03:05:00,
2013-03-26 23:20:00,33.2,20.0,29.78,WSW,248,3.0,4.0,59,0.00,,,0.00,weatherlink.com 1.10,2013-03-27 03:20:00,
2013-03-26 23:35:00,32.5,21.0,29.79,WSW,251,0.0,3.0,63,0.00,,,0.00,weatherlink.com 1.10,2013-03-27 03:35:00,
2013-03-26 23:50:00,32.2,21.0,29.79,WSW,248,1.0,4.0,64,0.00,,,0.00,weatherlink.com 1.10,2013-03-27 03:50:00,